GW1859 Weather Reports


time (UTC)temp
C
wind
direction
speed
KPH
gust
KPH
rain 1hr
cm
rain 24hr
cm
rain mn
cm
humidity
%
barometer
mb
20260508041405 16 145 3.2 4.8 0.00 0.00 0.00 49 1012.7
20260508040902 16 302 3.2 3.2 0.00 0.00 0.00 48 1012.6
20260508040359 16 241 3.2 3.2 0.00 0.00 0.00 47 1012.4
20260508035857 16 137 0.0 1.6 0.00 0.00 0.00 47 1012.6
20260508035354 17 178 3.2 3.2 0.00 0.00 0.00 47 1012.8
20260508034850 17 174 3.2 4.8 0.00 0.00 0.00 46 1012.8
20260508034347 17 84 4.8 8.0 0.00 0.00 0.00 46 1013.0
20260508033844 17 173 1.6 3.2 0.00 0.00 0.00 45 1012.7
20260508033343 17 214 6.4 9.7 0.00 0.00 0.00 45 1012.7
20260508032839 17 142 0.0 0.0 0.00 0.00 0.00 45 1012.7
20260508032337 17 208 3.2 4.8 0.00 0.00 0.00 45 1012.7
20260508031833 17 159 3.2 4.8 0.00 0.00 0.00 45 1012.7
20260508031330 17 170 4.8 8.0 0.00 0.00 0.00 44 1012.7
20260508030827 17 131 1.6 1.6 0.00 0.00 0.00 44 1012.9
20260508030324 17 145 1.6 8.0 0.00 0.00 0.00 43 1012.7
20260508025821 17 138 0.0 1.6 0.00 0.00 0.00 44 1012.8
20260508025318 18 87 0.0 1.6 0.00 0.00 0.00 43 1012.8
20260508024815 18 235 0.0 0.0 0.00 0.00 0.00 43 1012.7
20260508024311 18 195 0.0 1.6 0.00 0.00 0.00 42 1012.6
20260508023808 18 84 1.6 1.6 0.00 0.00 0.00 42 1012.4
20260508023305 18 131 0.0 1.6 0.00 0.00 0.00 42 1012.5
20260508022801 18 112 0.0 0.0 0.00 0.00 0.00 41 1012.4
20260508022257 18 125 0.0 0.0 0.00 0.00 0.00 41 1012.6
20260508021755 18 119 0.0 0.0 0.00 0.00 0.00 42 1012.5
20260508021250 18 135 0.0 0.0 0.00 0.00 0.00 43 1012.4
20260508020747 18 113 1.6 1.6 0.00 0.00 0.00 42 1012.5
20260508020245 18 126 0.0 0.0 0.00 0.00 0.00 41 1012.4
20260508015741 18 130 0.0 0.0 0.00 0.00 0.00 41 1012.1
20260508015238 19 134 0.0 0.0 0.00 0.00 0.00 41 1012.2
20260508014735 19 176 1.6 1.6 0.00 0.00 0.00 40 1012.0
20260508014232 20 146 0.0 0.0 0.00 0.00 0.00 40 1012.0
20260508013728 20 149 0.0 0.0 0.00 0.00 0.00 39 1012.0
20260508013224 20 136 3.2 3.2 0.00 0.00 0.00 38 1011.7
20260508012722 20 137 0.0 0.0 0.00 0.00 0.00 39 1011.6
20260508012219 21 130 0.0 0.0 0.00 0.00 0.00 37 1011.7
20260508011717 21 125 0.0 0.0 0.00 0.00 0.00 36 1011.7
20260508011214 21 144 0.0 0.0 0.00 0.00 0.00 35 1012.0
20260508010711 22 113 3.2 3.2 0.00 0.00 0.00 34 1011.7
20260508010209 22 175 0.0 0.0 0.00 0.00 0.00 34 1011.7
20260508005706 22 138 1.6 1.6 0.00 0.00 0.00 34 1011.6
20260508005202 22 158 1.6 1.6 0.00 0.00 0.00 32 1011.6
20260508004658 23 127 3.2 4.8 0.00 0.00 0.00 31 1011.5
20260508004154 23 132 0.0 1.6 0.00 0.00 0.00 31 1011.7
20260508003651 23 141 0.0 0.0 0.00 0.00 0.00 30 1011.7
20260508003149 24 157 4.8 4.8 0.00 0.00 0.00 29 1011.5
20260508002645 25 161 4.8 8.0 0.00 0.00 0.00 28 1011.8
20260508002143 25 216 4.8 4.8 0.00 0.00 0.00 27 1011.5
20260508001638 25 161 1.6 3.2 0.00 0.00 0.00 27 1011.5
20260508001134 25 243 3.2 3.2 0.00 0.00 0.00 27 1011.6
20260508000630 25 165 0.0 1.6 0.00 0.00 0.00 26 1011.5
20260508000128 25 229 3.2 4.8 0.00 0.00 0.00 26 1011.8
20260507235624 25 154 4.8 4.8 0.00 0.00 0.00 26 1011.7
20260507235122 26 184 1.6 3.2 0.00 0.00 0.00 26 1011.6
20260507234618 26 193 1.6 1.6 0.00 0.00 0.00 26 1012.0
20260507234115 26 190 1.6 1.6 0.00 0.00 0.00 26 1011.8
20260507233612 26 156 3.2 4.8 0.00 0.00 0.00 26 1011.5
20260507233110 26 139 3.2 4.8 0.00 0.00 0.00 26 1011.8
20260507232606 26 231 1.6 3.2 0.00 0.00 0.00 26 1011.7
20260507232104 26 172 4.8 8.0 0.00 0.00 0.00 25 1011.8
20260507231600 26 180 4.8 4.8 0.00 0.00 0.00 25 1012.0
20260507231057 26 174 3.2 3.2 0.00 0.00 0.00 26 1012.0
20260507230553 26 151 3.2 4.8 0.00 0.00 0.00 26 1012.1
20260507230050 26 275 1.6 3.2 0.00 0.00 0.00 26 1011.8
20260507225545 26 138 6.4 8.0 0.00 0.00 0.00 26 1012.1
20260507225042 26 212 4.8 9.7 0.00 0.00 0.00 26 1012.3
20260507224537 26 157 0.0 1.6 0.00 0.00 0.00 26 1012.3
20260507224034 26 267 8.0 9.7 0.00 0.00 0.00 26 1012.2
20260507223531 26 202 4.8 8.0 0.00 0.00 0.00 26 1012.3
20260507223028 26 154 0.0 1.6 0.00 0.00 0.00 28 1012.4
20260507222525 26 222 4.8 8.0 0.00 0.00 0.00 27 1012.4
20260507222021 26 225 4.8 9.7 0.00 0.00 0.00 27 1012.5
20260507221517 26 237 4.8 4.8 0.00 0.00 0.00 27 1012.7
20260507221015 26 183 1.6 1.6 0.00 0.00 0.00 27 1012.7
20260507220512 26 158 1.6 3.2 0.00 0.00 0.00 28 1012.8
20260507220009 26 268 8.0 11.3 0.00 0.00 0.00 26 1012.6
20260507215505 26 207 3.2 4.8 0.00 0.00 0.00 27 1012.8
20260507215003 25 229 6.4 9.7 0.00 0.00 0.00 28 1012.6
20260507214500 25 189 4.8 8.0 0.00 0.00 0.00 29 1012.7
20260507213955 25 199 12.9 17.7 0.00 0.00 0.00 28 1012.9
20260507213452 25 92 3.2 8.0 0.00 0.00 0.00 29 1012.9
20260507212949 25 229 8.0 9.7 0.00 0.00 0.00 28 1013.0
20260507212444 26 233 1.6 1.6 0.00 0.00 0.00 29 1013.1
20260507211942 25 142 3.2 3.2 0.00 0.00 0.00 30 1013.3
20260507211438 25 217 4.8 8.0 0.00 0.00 0.00 30 1013.2
20260507210935 25 198 4.8 8.0 0.00 0.00 0.00 30 1013.3
20260507210432 25 259 6.4 9.7 0.00 0.00 0.00 29 1013.6
20260507205929 25 242 6.4 9.7 0.00 0.00 0.00 30 1013.5
20260507205426 25 256 1.6 3.2 0.00 0.00 0.00 29 1013.4
20260507204922 25 257 11.3 14.5 0.00 0.00 0.00 30 1013.7
20260507204418 24 201 1.6 3.2 0.00 0.00 0.00 31 1013.9
20260507203916 24 327 6.4 8.0 0.00 0.00 0.00 30 1014.0
20260507203414 24 102 3.2 3.2 0.00 0.00 0.00 32 1014.2
20260507202910 24 176 3.2 4.8 0.00 0.00 0.00 32 1013.9
20260507202407 23 232 9.7 11.3 0.00 0.00 0.00 32 1014.3
20260507201902 23 196 3.2 4.8 0.00 0.00 0.00 31 1014.1
20260507201358 23 136 4.8 8.0 0.00 0.00 0.00 32 1014.6
20260507200854 23 138 6.4 9.7 0.00 0.00 0.00 32 1014.6
20260507200350 23 178 3.2 3.2 0.00 0.00 0.00 33 1014.7
20260507195847 23 230 6.4 9.7 0.00 0.00 0.00 33 1015.1
20260507195344 23 186 3.2 3.2 0.00 0.00 0.00 34 1015.2
20260507194841 23 226 8.0 11.3 0.00 0.00 0.00 34 1014.9
20260507194338 22 233 8.0 11.3 0.00 0.00 0.00 33 1015.1
20260507193834 22 289 4.8 8.0 0.00 0.00 0.00 35 1015.4
20260507193332 22 255 3.2 4.8 0.00 0.00 0.00 34 1015.4
20260507192827 22 271 6.4 9.7 0.00 0.00 0.00 35 1015.2
20260507192324 22 246 4.8 8.0 0.00 0.00 0.00 35 1015.3
20260507191821 21 335 4.8 4.8 0.00 0.00 0.00 35 1015.6
20260507191317 21 176 4.8 4.8 0.00 0.00 0.00 36 1015.5
20260507190814 22 180 6.4 9.7 0.00 0.00 0.00 35 1015.5
20260507190312 21 194 6.4 11.3 0.00 0.00 0.00 34 1015.6
20260507185811 22 196 6.4 9.7 0.00 0.00 0.00 35 1015.8
20260507185307 21 271 8.0 9.7 0.00 0.00 0.00 35 1015.9
20260507184804 22 132 1.6 3.2 0.00 0.00 0.00 36 1016.0
20260507184302 21 342 3.2 4.8 0.00 0.00 0.00 37 1016.1
20260507183759 21 210 3.2 4.8 0.00 0.00 0.00 38 1016.0
20260507183256 20 321 4.8 8.0 0.00 0.00 0.00 37 1016.2
20260507182753 20 218 4.8 8.0 0.00 0.00 0.00 37 1016.2
20260507182248 21 225 4.8 8.0 0.00 0.00 0.00 38 1016.1
20260507181745 21 213 3.2 4.8 0.00 0.00 0.00 39 1016.4
20260507181241 20 224 3.2 3.2 0.00 0.00 0.00 39 1016.6
20260507180738 20 194 8.0 12.9 0.00 0.00 0.00 40 1016.7
20260507180235 20 183 4.8 8.0 0.00 0.00 0.00 39 1016.7
20260507175730 20 202 6.4 11.3 0.00 0.00 0.00 40 1016.5
20260507175228 20 352 3.2 3.2 0.00 0.00 0.00 40 1017.0
20260507174725 20 223 6.4 8.0 0.00 0.00 0.00 43 1017.0
20260507174223 19 233 8.0 12.9 0.00 0.00 0.00 41 1017.0
20260507173720 18 192 4.8 4.8 0.00 0.00 0.00 42 1017.2
20260507173217 18 174 3.2 3.2 0.00 0.00 0.00 42 1017.4
20260507172714 18 225 6.4 8.0 0.00 0.00 0.00 44 1017.4
20260507172210 18 191 11.3 16.1 0.00 0.00 0.00 44 1017.5
20260507171705 18 220 4.8 8.0 0.00 0.00 0.00 45 1017.5
20260507171203 18 280 4.8 4.8 0.00 0.00 0.00 45 1017.7
20260507170659 18 313 3.2 4.8 0.00 0.00 0.00 48 1017.9
20260507170156 18 222 9.7 14.5 0.00 0.00 0.00 46 1017.8
20260507165652 17 211 4.8 4.8 0.00 0.00 0.00 47 1018.0
20260507165148 17 225 6.4 12.9 0.00 0.00 0.00 49 1018.2
20260507164644 17 192 12.9 17.7 0.00 0.00 0.00 48 1018.3
20260507164142 17 143 4.8 8.0 0.00 0.00 0.00 50 1018.4
20260507163638 17 213 8.0 11.3 0.00 0.00 0.00 49 1018.5
20260507163137 17 218 6.4 8.0 0.00 0.00 0.00 50 1018.5
20260507162632 17 321 4.8 4.8 0.00 0.00 0.00 52 1018.5
20260507162128 17 258 6.4 11.3 0.00 0.00 0.00 52 1018.4
20260507161625 16 271 8.0 17.7 0.00 0.00 0.00 53 1018.5
20260507161122 16 115 6.4 9.7 0.00 0.00 0.00 52 1018.7
20260507160618 16 175 3.2 4.8 0.00 0.00 0.00 55 1018.8
20260507160114 16 215 11.3 20.9 0.00 0.00 0.00 55 1018.7
20260507155609 16 234 1.6 4.8 0.00 0.00 0.00 56 1018.9
20260507155107 16 213 6.4 9.7 0.00 0.00 0.00 56 1018.7
20260507154604 16 192 6.4 12.9 0.00 0.00 0.00 56 1018.7
20260507154101 15 167 3.2 4.8 0.00 0.00 0.00 58 1018.7
20260507153557 15 166 11.3 17.7 0.00 0.00 0.00 56 1018.6
20260507153054 15 189 6.4 11.3 0.00 0.00 0.00 57 1018.7
20260507152550 15 185 4.8 4.8 0.00 0.00 0.00 58 1018.9
20260507152046 15 202 8.0 11.3 0.00 0.00 0.00 58 1018.9
20260507151542 15 258 4.8 8.0 0.00 0.00 0.00 59 1018.8
20260507151040 15 172 1.6 3.2 0.00 0.00 0.00 60 1019.1
20260507150537 14 248 6.4 8.0 0.00 0.00 0.00 63 1019.2
20260507150033 14 173 3.2 3.2 0.00 0.00 0.00 62 1019.3
20260507145528 14 223 8.0 11.3 0.00 0.00 0.00 63 1019.3
20260507145026 13 246 4.8 8.0 0.00 0.00 0.00 64 1019.2
20260507144522 13 218 6.4 8.0 0.00 0.00 0.00 66 1019.2
20260507144020 13 200 3.2 3.2 0.00 0.00 0.00 67 1019.3
20260507143517 13 267 4.8 4.8 0.00 0.00 0.00 67 1019.3
20260507143015 12 214 3.2 3.2 0.00 0.00 0.00 69 1019.6
20260507142509 12 242 6.4 11.3 0.00 0.00 0.00 69 1019.7
20260507142007 12 170 6.4 11.3 0.00 0.00 0.00 70 1019.8
20260507141503 12 98 4.8 4.8 0.00 0.00 0.00 71 1019.8
20260507140959 12 155 3.2 4.8 0.00 0.00 0.00 71 1019.9
20260507140456 12 233 4.8 8.0 0.00 0.00 0.00 73 1019.8
20260507135954 11 249 6.4 8.0 0.00 0.00 0.00 73 1019.9
20260507135450 11 154 4.8 8.0 0.00 0.00 0.00 75 1019.9
20260507134948 11 191 3.2 4.8 0.00 0.00 0.00 77 1019.9
20260507134444 11 154 1.6 1.6 0.00 0.00 0.00 78 1019.8
20260507133940 10 283 4.8 8.0 0.00 0.00 0.00 80 1020.0
20260507133436 10 182 1.6 1.6 0.00 0.00 0.00 80 1020.1
20260507132935 10 165 1.6 1.6 0.00 0.00 0.00 82 1019.9
20260507132431 10 258 3.2 4.8 0.00 0.00 0.00 83 1020.2
20260507131927 9 170 1.6 3.2 0.00 0.00 0.00 85 1020.1
20260507131425 9 263 3.2 4.8 0.00 0.00 0.00 85 1020.1
20260507130922 8 173 0.0 1.6 0.00 0.00 0.00 86 1019.9
20260507130419 8 225 3.2 3.2 0.00 0.00 0.00 86 1020.2
20260507125917 8 185 3.2 3.2 0.00 0.00 0.00 87 1020.1
20260507125415 8 178 0.0 0.0 0.00 0.00 0.00 89 1020.0
20260507124912 7 147 0.0 0.0 0.00 0.00 0.00 91 1020.0
20260507124408 7 154 0.0 0.0 0.00 0.00 0.00 91 1019.9
20260507123907 7 171 0.0 1.6 0.00 0.00 0.00 92 1020.1
20260507123403 6 183 3.2 3.2 0.00 0.00 0.00 92 1019.8
20260507122900 6 149 0.0 0.0 0.00 0.00 0.00 93 1020.0
20260507122355 6 141 0.0 0.0 0.00 0.00 0.00 93 1019.8
20260507121852 6 146 0.0 0.0 0.00 0.00 0.00 93 1019.7
20260507121347 5 141 0.0 0.0 0.00 0.00 0.00 93 1019.9
20260507120844 5 137 0.0 0.0 0.00 0.00 0.00 93 1019.9
20260507120340 5 136 0.0 0.0 0.00 0.00 0.00 93 1019.7
20260507115837 5 136 0.0 0.0 0.00 0.00 0.00 92 1019.8
20260507115332 5 136 0.0 0.0 0.00 0.00 0.00 92 1019.7
20260507114828 5 136 0.0 0.0 0.00 0.00 0.00 92 1020.0
20260507114326 5 136 0.0 0.0 0.00 0.00 0.00 92 1019.5
20260507113823 5 136 0.0 0.0 0.00 0.00 0.00 92 1019.7
20260507113320 5 136 0.0 0.0 0.00 0.00 0.00 91 1019.6
20260507112818 5 136 0.0 0.0 0.00 0.00 0.00 91 1019.7
20260507112314 5 137 0.0 0.0 0.00 0.00 0.00 91 1019.8
20260507111812 5 137 0.0 0.0 0.00 0.00 0.00 91 1019.7
20260507111308 6 138 0.0 0.0 0.00 0.00 0.00 91 1019.7
20260507110804 6 140 0.0 0.0 0.00 0.00 0.00 91 1019.5
20260507110301 6 139 0.0 0.0 0.00 0.00 0.00 91 1019.6
20260507105758 6 139 0.0 0.0 0.00 0.00 0.00 91 1019.6
20260507105254 6 140 0.0 0.0 0.00 0.00 0.00 90 1019.5
20260507104752 6 141 0.0 0.0 0.00 0.00 0.00 90 1019.5
20260507104248 6 139 0.0 0.0 0.00 0.00 0.00 90 1019.3
20260507103744 6 139 0.0 0.0 0.00 0.00 0.00 90 1019.8
20260507103240 6 142 0.0 0.0 0.00 0.00 0.00 90 1019.7
20260507102737 7 140 0.0 0.0 0.00 0.00 0.00 89 1019.7
20260507102234 7 142 0.0 0.0 0.00 0.00 0.00 89 1019.8
20260507101730 7 141 0.0 0.0 0.00 0.00 0.00 89 1020.1
20260507101225 7 140 0.0 0.0 0.00 0.00 0.00 89 1019.9
20260507100722 7 136 0.0 0.0 0.00 0.00 0.00 89 1020.0
20260507100221 7 137 0.0 0.0 0.00 0.00 0.00 89 1020.3
20260507095718 7 135 0.0 0.0 0.00 0.00 0.00 89 1020.1
20260507095215 7 136 0.0 0.0 0.00 0.00 0.00 89 1020.1
20260507094712 7 136 0.0 0.0 0.00 0.00 0.00 89 1020.0
20260507094209 7 138 0.0 0.0 0.00 0.00 0.00 89 1019.8
20260507093705 7 137 0.0 0.0 0.00 0.00 0.00 89 1020.0
20260507093204 7 138 0.0 0.0 0.00 0.00 0.00 89 1020.1
20260507092701 7 139 0.0 0.0 0.00 0.00 0.00 89 1020.2
20260507092157 7 139 0.0 0.0 0.00 0.00 0.00 89 1019.9
20260507091654 7 144 0.0 0.0 0.00 0.00 0.00 89 1020.3
20260507091150 7 131 0.0 0.0 0.00 0.00 0.00 89 1020.3
20260507090645 8 131 0.0 0.0 0.00 0.00 0.00 88 1020.1
20260507090143 8 131 0.0 0.0 0.00 0.00 0.00 88 1020.2
20260507085640 8 141 0.0 0.0 0.00 0.00 0.00 88 1020.3
20260507085137 8 135 0.0 0.0 0.00 0.00 0.00 88 1020.2
20260507084634 8 135 0.0 0.0 0.00 0.00 0.00 87 1020.2
20260507084130 8 135 0.0 0.0 0.00 0.00 0.00 86 1020.1
20260507083627 8 145 0.0 0.0 0.00 0.00 0.00 85 1019.9
20260507083124 9 130 0.0 0.0 0.00 0.00 0.00 85 1020.0
20260507082619 9 133 0.0 0.0 0.00 0.00 0.00 84 1020.3
20260507082116 10 134 0.0 0.0 0.00 0.00 0.00 83 1020.0
20260507081613 10 140 0.0 0.0 0.00 0.00 0.00 82 1020.3
20260507081109 10 134 0.0 0.0 0.00 0.00 0.00 82 1020.2
20260507080606 10 133 0.0 0.0 0.00 0.00 0.00 82 1020.6
20260507075557 10 140 0.0 0.0 0.00 0.00 0.00 82 1020.4
20260507075054 10 134 0.0 0.0 0.00 0.00 0.00 82 1020.5
20260507074551 10 130 0.0 0.0 0.00 0.00 0.00 82 1020.6
20260507074049 10 139 0.0 0.0 0.00 0.00 0.00 82 1020.6
20260507073545 10 143 0.0 0.0 0.00 0.00 0.00 82 1020.4
20260507073041 10 142 0.0 0.0 0.00 0.00 0.00 82 1020.5
20260507072539 10 132 0.0 0.0 0.00 0.00 0.00 82 1020.5
20260507072036 10 130 0.0 0.0 0.00 0.00 0.00 83 1020.8
20260507071533 10 130 0.0 0.0 0.00 0.00 0.00 83 1020.8
20260507071030 10 129 0.0 0.0 0.00 0.00 0.00 81 1020.7
20260507070527 10 129 0.0 0.0 0.00 0.00 0.00 80 1021.1
20260507070024 10 129 0.0 0.0 0.00 0.00 0.00 80 1020.9
20260507065520 10 129 0.0 0.0 0.00 0.00 0.00 80 1021.0
20260507065018 10 129 0.0 0.0 0.00 0.00 0.00 79 1021.0
20260507064515 10 130 0.0 0.0 0.00 0.00 0.00 79 1021.1
20260507064014 10 130 0.0 0.0 0.00 0.00 0.00 79 1021.1
20260507063510 10 131 0.0 0.0 0.00 0.00 0.00 79 1021.2
20260507063008 10 130 0.0 0.0 0.00 0.00 0.00 80 1021.0
20260507062504 10 130 0.0 0.0 0.00 0.00 0.00 80 1020.8
20260507062002 10 130 0.0 0.0 0.00 0.00 0.00 80 1021.0
20260507061459 10 130 0.0 0.0 0.00 0.00 0.00 81 1021.0
20260507060958 10 130 0.0 0.0 0.00 0.00 0.00 79 1020.9
20260507060454 10 130 0.0 0.0 0.00 0.00 0.00 81 1020.8
20260507055951 10 130 0.0 0.0 0.00 0.00 0.00 80 1021.0
20260507055446 10 130 0.0 0.0 0.00 0.00 0.00 80 1020.9
20260507054943 10 130 0.0 0.0 0.00 0.00 0.00 78 1021.0
20260507054439 10 130 0.0 0.0 0.00 0.00 0.00 79 1021.1
20260507053936 10 127 0.0 0.0 0.00 0.00 0.00 79 1021.5
20260507053434 10 127 0.0 0.0 0.00 0.00 0.00 80 1021.5
20260507052932 10 127 0.0 0.0 0.00 0.00 0.00 81 1020.9
20260507052430 10 127 0.0 0.0 0.00 0.00 0.00 80 1021.2
20260507051927 10 127 0.0 0.0 0.00 0.00 0.00 82 1021.3
20260507051424 10 127 0.0 0.0 0.00 0.00 0.00 83 1021.0
20260507050921 10 127 0.0 0.0 0.00 0.00 0.00 82 1021.0
20260507050418 10 127 0.0 0.0 0.00 0.00 0.00 82 1021.1
20260507045915 10 127 0.0 0.0 0.00 0.00 0.00 82 1021.1
20260507045411 10 127 0.0 0.0 0.00 0.00 0.00 80 1021.2
20260507044908 9 126 0.0 0.0 0.00 0.00 0.00 82 1021.0
20260507044405 9 126 0.0 0.0 0.00 0.00 0.00 82 1020.9
20260507043901 9 127 0.0 0.0 0.00 0.00 0.00 82 1021.0
20260507043357 9 127 0.0 0.0 0.00 0.00 0.00 81 1020.9
20260507042854 9 127 0.0 0.0 0.00 0.00 0.00 82 1020.9
20260507042350 9 127 0.0 0.0 0.00 0.00 0.00 82 1020.9
20260507041846 9 127 0.0 0.0 0.00 0.00 0.00 80 1020.5